STARLINK-31667 (59609 NORAD) Tracking and Keplerian Element Data

This shows tracking and keplerian element data for the satellite.

Feedback or suggestion? Click here.




ElementValue
Catalog59609
NameSTARLINK-31667
Epoch Orbit749
Epoch Day160.07534527
Epoch Year2024
RAAN88.042
Inclination43.0017
Eccentricity0.0002781
Argument of Perigee270.9658
Mean Anonmoly89.088
Mean Motion15.40681406
Decay Rate-2.885E-05
L11 59609U 24080J 24160.07534527 -.00002885 00000+0 -61848-4 0 9994
L22 59609 43.0017 88.0420 0002781 270.9658 89.0880 15.40681406 7491



Live tracking and technical data element details for STARLINK-31667 (NORAD 59609). STARLINK-31667 can be tracked NOW for your location showing map with azimuth and elevation plus other details from your city location.







IsCatalogInMostPopularTable: catalog: 59609, numindb: 14
Update: records affected: 1



GetName: 59609 STARLINK-31667

Hit Count: updated at: Fri, 14 Jun 2024 19:07:12 GMT